Date,TemperatureHighF,TemperatureAvgF,TemperatureLowF,DewpointHighF,DewpointAvgF,DewpointLowF,HumidityHigh,HumidityAvg,HumidityLow,PressureMaxIn,PressureMinIn,WindSpeedMaxMPH,WindSpeedAvgMPH,GustSpeedMaxMPH,PrecipitationSumIn
2013-1-1,11,7,1,-100,-100,-100,0,0,100,0.00,40.00,11,8,21,0.00
2013-1-2,17,13,9,-100,-100,-100,0,0,100,0.00,40.00,11,7,18,0.00
2013-1-3,33,22,10,-100,-100,-100,0,0,100,0.00,40.00,7,4,12,0.00
2013-1-4,33,27,19,-100,-100,-100,0,0,100,0.00,40.00,7,5,13,0.00
2013-1-5,37,27,19,-100,-100,-100,0,0,100,0.00,40.00,12,5,22,0.00
2013-1-6,32,28,24,-100,-100,-100,0,0,100,0.00,40.00,13,5,28,0.00
2013-1-7,30,24,20,-100,-100,-100,0,0,100,0.00,40.00,9,5,25,0.00
2013-1-8,22,19,17,-100,-100,-100,0,0,100,0.00,40.00,10,7,20,0.00
2013-1-9,37,33,23,-100,-100,-100,0,0,100,0.00,40.00,20,9,41,0.00
2013-1-10,32,21,4,-100,-100,-100,0,0,100,0.00,40.00,27,13,59,0.00
2013-1-11,3,-2,-4,-100,-100,-100,0,0,100,0.00,40.00,14,10,27,0.00
2013-1-12,-5,-8,-11,-100,-100,-100,0,0,100,0.00,40.00,11,7,18,0.00
2013-1-13,-5,-10,-13,-100,-100,-100,0,0,100,0.00,40.00,5,3,9,0.00
2013-1-14,-5,-9,-13,-100,-100,-100,0,0,100,0.00,40.00,9,6,15,0.00
2013-1-15,16,7,-6,-100,-100,-100,0,0,100,0.00,40.00,11,8,21,0.00
2013-1-16,26,20,12,-100,-100,-100,0,0,100,0.00,40.00,12,10,23,0.00
2013-1-17,35,28,24,-100,-100,-100,0,0,100,0.00,40.00,11,5,15,0.00
2013-1-18,34,29,26,-100,-100,-100,0,0,100,0.00,40.00,7,4,14,0.00
2013-1-19,34,28,25,-100,-100,-100,0,0,100,0.00,40.00,9,6,15,0.00
2013-1-20,31,27,23,-100,-100,-100,0,0,100,0.00,40.00,8,6,14,0.00
2013-1-21,36,29,24,-100,-100,-100,0,0,100,0.00,40.00,9,6,17,0.00
2013-1-22,43,37,31,-100,-100,-100,0,0,100,0.00,40.00,8,6,19,0.00
2013-1-23,40,36,33,-100,-100,-100,0,0,100,0.00,40.00,23,15,32,0.00
2013-1-24,33,28,25,-100,-100,-100,0,0,100,0.00,40.00,16,5,25,0.00
2013-1-25,28,26,24,-100,-100,-100,0,0,100,0.00,40.00,13,4,20,0.00
2013-1-26,33,29,26,-100,-100,-100,0,0,100,0.00,40.00,15,6,19,0.00
2013-1-27,26,20,10,-100,-100,-100,0,0,100,0.00,40.00,18,8,44,0.00
2013-1-28,10,5,1,-100,-100,-100,0,0,100,0.00,40.00,8,5,19,0.00
2013-1-29,9,6,3,-100,-100,-100,0,0,100,0.00,40.00,15,10,30,0.00
2013-1-30,18,15,8,-100,-100,-100,0,0,100,0.00,40.00,19,14,33,0.00
2013-1-31,22,18,16,-100,-100,-100,0,0,100,0.00,40.00,12,8,22,0.00
2013-2-1,24,20,18,-100,-100,-100,0,0,100,0.00,40.00,12,8,19,0.00
2013-2-2,36,28,20,-100,-100,-100,0,0,100,0.00,40.00,6,3,11,0.00
2013-2-3,31,28,22,-100,-100,-100,0,0,100,0.00,40.00,6,4,11,0.00
2013-2-4,27,24,20,-100,-100,-100,0,0,100,0.00,40.00,13,7,24,0.00
2013-2-5,37,30,25,-100,-100,-100,0,0,100,0.00,40.00,11,6,26,0.00
2013-2-6,30,22,16,-100,-100,-100,0,0,100,0.00,40.00,8,5,17,0.00
2013-2-7,29,24,17,-100,-100,-100,0,0,100,0.00,40.00,15,7,26,0.00
2013-2-8,22,17,12,-100,-100,-100,0,0,100,0.00,40.00,16,10,27,0.00
2013-2-9,15,10,7,-100,-100,-100,0,0,100,0.00,40.00,6,4,13,0.00
2013-2-10,16,8,4,-100,-100,-100,0,0,100,0.00,40.00,5,2,10,0.00
2013-2-11,15,6,1,-100,-100,-100,0,0,100,0.00,40.00,7,3,14,0.00
2013-2-12,13,9,2,-100,-100,-100,0,0,100,0.00,40.00,9,7,18,0.00
2013-2-13,21,16,11,-100,-100,-100,0,0,100,0.00,40.00,12,7,21,0.00
2013-2-14,21,16,13,-100,-100,-100,0,0,100,0.00,40.00,13,7,26,0.00
2013-2-15,28,18,11,-100,-100,-100,0,0,100,0.00,40.00,6,5,14,0.00
2013-2-16,34,29,24,-100,-100,-100,0,0,100,0.00,40.00,11,8,19,0.00
2013-2-17,29,19,6,-100,-100,-100,0,0,100,0.00,40.00,18,11,30,0.00
2013-2-18,23,14,5,-100,-100,-100,0,0,100,0.00,40.00,12,6,24,0.00
2013-2-19,27,22,16,-100,-100,-100,0,0,100,0.00,40.00,18,9,35,0.00
2013-2-20,27,18,14,-100,-100,-100,0,0,100,0.00,40.00,10,5,19,0.00
2013-2-21,19,10,4,-100,-100,-100,0,0,100,0.00,40.00,4,3,12,0.00
2013-2-22,11,9,3,-100,-100,-100,0,0,100,0.00,40.00,12,8,23,0.00
2013-2-23,18,9,3,-100,-100,-100,0,0,100,0.00,40.00,21,12,33,0.00
2013-2-24,12,6,2,-100,-100,-100,0,0,100,0.00,40.00,12,6,25,0.00
2013-2-25,26,15,5,-100,-100,-100,0,0,100,0.00,40.00,11,6,20,0.00
2013-2-26,10,6,2,-100,-100,-100,0,0,100,0.00,40.00,12,8,27,0.00
2013-2-27,17,10,2,-100,-100,-100,0,0,100,0.00,40.00,7,4,13,0.00
2013-2-28,20,17,14,-100,-100,-100,0,0,100,0.00,40.00,12,8,19,0.00
2013-3-1,31,25,21,-100,-100,-100,0,0,100,0.00,40.00,11,6,24,0.00
2013-3-2,46,35,27,-100,-100,-100,0,0,100,0.00,40.00,10,5,18,0.00
2013-3-3,33,27,23,-100,-100,-100,0,0,100,0.00,40.00,12,9,23,0.00
2013-3-4,21,14,8,-100,-100,-100,0,0,100,0.00,40.00,16,8,32,0.00
2013-3-5,36,29,18,-100,-100,-100,0,0,100,0.00,40.00,8,6,23,0.00
2013-3-6,32,29,23,-100,-100,-100,0,0,100,0.00,40.00,15,8,32,0.00
2013-3-7,30,25,21,-100,-100,-100,0,0,100,0.00,40.00,10,5,32,0.00
2013-3-8,28,24,22,-100,-100,-100,0,0,100,0.00,40.00,12,5,23,0.00
2013-3-9,23,19,12,-100,-100,-100,0,0,100,0.00,40.00,12,7,22,0.00
2013-3-10,31,21,13,-100,-100,-100,0,0,100,0.00,40.00,9,6,17,0.00
2013-3-11,25,23,21,-100,-100,-100,0,0,100,0.00,40.00,16,12,28,0.00
2013-3-12,35,28,23,-100,-100,-100,0,0,100,0.00,40.00,14,7,30,0.00
2013-3-13,42,35,30,-100,-100,-100,0,0,100,0.00,40.00,9,6,21,0.00
2013-3-14,48,43,39,-100,-100,-100,0,0,100,0.00,40.00,13,9,21,0.00
2013-3-15,45,41,35,-100,-100,-100,0,0,100,0.00,40.00,12,8,23,0.00
2013-3-16,35,31,29,-100,-100,-100,0,0,100,0.00,40.00,12,9,23,0.00
2013-3-17,30,20,14,-100,-100,-100,0,0,100,0.00,40.00,20,14,36,0.00
2013-3-18,23,18,13,-100,-100,-100,0,0,100,0.00,40.00,17,12,30,0.00
2013-3-19,34,24,16,-100,-100,-100,0,0,100,0.00,40.00,16,7,20,0.00
2013-3-20,31,28,25,-100,-100,-100,0,0,100,0.00,40.00,20,11,35,0.00
2013-3-21,30,20,12,-100,-100,-100,0,0,100,0.00,40.00,21,14,35,0.00
2013-3-22,13,7,3,-100,-100,-100,0,0,100,0.00,40.00,13,8,27,0.00
2013-3-23,11,4,1,-100,-100,-100,0,0,100,0.00,40.00,8,5,16,0.00
2013-3-24,16,8,3,-100,-100,-100,0,0,100,0.00,40.00,9,5,14,0.00
2013-3-25,26,18,10,-100,-100,-100,0,0,100,0.00,40.00,9,5,15,0.00
2013-3-26,34,29,26,-100,-100,-100,0,0,100,0.00,40.00,19,9,31,0.00
2013-3-27,39,32,26,-100,-100,-100,0,0,100,0.00,40.00,12,4,17,0.00
2013-3-28,41,37,33,-100,-100,-100,0,0,100,0.00,40.00,14,6,19,0.00
2013-3-29,39,34,30,-100,-100,-100,0,0,100,0.00,40.00,8,6,16,0.00
2013-3-30,40,35,32,-100,-100,-100,0,0,100,0.00,40.00,8,6,16,0.00
2013-3-31,45,38,31,-100,-100,-100,0,0,100,0.00,40.00,15,4,27,0.00
2013-4-1,35,30,26,-100,-100,-100,0,0,100,0.00,40.00,15,6,29,0.00
2013-4-2,33,27,25,-100,-100,-100,0,0,100,0.00,40.00,15,7,28,0.00
2013-4-3,40,34,29,-100,-100,-100,0,0,100,0.00,40.00,7,6,14,0.00
2013-4-4,44,39,34,-100,-100,-100,0,0,100,0.00,40.00,14,7,30,0.00
2013-4-5,38,30,27,-100,-100,-100,0,0,100,0.00,40.00,14,9,31,0.00
2013-4-6,33,29,27,-100,-100,-100,0,0,100,0.00,40.00,11,6,19,0.00
2013-4-7,34,30,27,-100,-100,-100,0,0,100,0.00,40.00,14,9,27,0.00
2013-4-8,33,25,15,-100,-100,-100,0,0,100,0.00,40.00,9,6,19,0.00
2013-4-9,15,9,5,-100,-100,-100,0,0,100,0.00,40.00,13,7,26,0.00
2013-4-10,29,20,10,-100,-100,-100,0,0,100,0.00,40.00,13,10,28,0.00
2013-4-11,31,27,24,-100,-100,-100,0,0,100,0.00,40.00,12,6,23,0.00
2013-4-12,35,29,22,-100,-100,-100,0,0,100,0.00,40.00,9,6,21,0.00
2013-4-13,34,29,18,-100,-100,-100,0,0,100,0.00,40.00,18,12,33,0.00
2013-4-14,22,15,9,-100,-100,-100,0,0,100,0.00,40.00,13,8,26,0.00
2013-4-15,23,19,16,-100,-100,-100,0,0,100,0.00,40.00,12,5,29,0.00
2013-4-16,18,16,15,-100,-100,-100,0,0,100,0.00,40.00,5,3,10,0.00
2013-11-4,14,13,12,-100,-100,-100,0,0,100,0.00,40.00,4,3,10,0.00
2013-11-5,17,14,10,-100,-100,-100,0,0,100,0.00,40.00,7,7,14,0.00
2013-11-6,27,24,19,-100,-100,-100,0,0,100,0.00,40.00,9,7,20,0.00
2013-11-7,39,34,28,-100,-100,-100,0,0,100,0.00,40.00,17,9,37,0.00
2013-11-8,36,34,33,-100,-100,-100,0,0,100,0.00,40.00,23,12,35,0.00
2013-11-9,43,37,35,-100,-100,-100,0,0,100,0.00,40.00,10,7,19,0.00
2013-11-10,41,38,36,-100,-100,-100,0,0,100,0.00,40.00,6,5,10,0.00
2013-11-11,48,44,41,-100,-100,-100,0,0,100,0.00,40.00,4,3,10,0.00
2013-11-12,50,44,41,-100,-100,-100,0,0,100,0.00,40.00,6,3,11,0.00
2013-11-13,42,37,28,-100,-100,-100,0,0,100,0.00,40.00,13,7,22,0.00
2013-11-14,38,33,26,-100,-100,-100,0,0,100,0.00,40.00,15,6,29,0.00
2013-11-15,22,20,15,-100,-100,-100,0,0,100,0.00,40.00,9,7,18,0.00
2013-11-16,19,18,17,-100,-100,-100,0,0,100,0.00,40.00,16,12,33,0.00
2013-11-17,29,24,19,-100,-100,-100,0,0,100,0.00,40.00,17,12,34,0.00
2013-11-18,39,34,30,-100,-100,-100,0,0,100,0.00,40.00,11,8,24,0.00
2013-11-19,34,30,27,-100,-100,-100,0,0,100,0.00,40.00,17,9,29,0.00
2013-11-20,28,28,28,-100,-100,-100,0,0,100,0.00,40.00,6,5,20,0.00
2013-11-21,25,21,15,-100,-100,-100,0,0,100,0.00,40.00,11,4,24,0.00
2013-11-22,27,22,15,-100,-100,-100,0,0,100,0.00,40.00,16,12,31,0.00
2013-11-23,27,24,22,-100,-100,-100,0,0,100,0.00,40.00,17,13,33,0.00
2013-11-24,27,25,21,-100,-100,-100,0,0,100,0.00,40.00,12,6,23,0.00
2013-11-25,31,26,22,-100,-100,-100,0,0,100,0.00,40.00,11,9,19,0.00
2013-11-26,39,31,25,-100,-100,-100,0,0,100,0.00,40.00,8,4,15,0.00
2013-11-27,41,36,33,-100,-100,-100,0,0,100,0.00,40.00,3,2,8,0.00
2013-11-28,38,34,29,-100,-100,-100,0,0,100,0.00,40.00,5,4,11,0.00
2013-11-29,34,29,26,-100,-100,-100,0,0,100,0.00,40.00,7,4,15,0.00
2013-11-30,32,26,24,-100,-100,-100,0,0,100,0.00,40.00,7,4,13,0.00
2013-12-1,29,27,22,-100,-100,-100,0,0,100,0.00,40.00,15,11,29,0.00
2013-12-2,31,30,25,-100,-100,-100,0,0,100,0.00,40.00,19,16,32,0.00
2013-12-3,25,12,2,-100,-100,-100,0,0,100,0.00,40.00,12,5,25,0.00
2013-12-4,1,-4,-10,-100,-100,-100,0,0,100,0.00,40.00,9,5,18,0.00
2013-12-5,-6,-10,-11,-100,-100,-100,0,0,100,0.00,40.00,7,4,10,0.00
2013-12-6,1,-6,-10,-100,-100,-100,0,0,100,0.00,40.00,14,5,22,0.00
2013-12-7,7,6,3,-100,-100,-100,0,0,100,0.00,40.00,24,12,43,0.00
2013-12-8,-1,-6,-9,-100,-100,-100,0,0,100,0.00,40.00,9,8,19,0.00
2013-12-9,8,-2,-11,-100,-100,-100,0,0,100,0.00,40.00,9,7,17,0.00
2013-12-10,18,14,9,-100,-100,-100,0,0,100,0.00,40.00,17,11,29,0.00
2013-12-11,28,20,14,-100,-100,-100,0,0,100,0.00,40.00,7,4,15,0.00
2013-12-12,32,30,27,-100,-100,-100,0,0,100,0.00,40.00,9,6,18,0.00
2013-12-13,25,19,14,-100,-100,-100,0,0,100,0.00,40.00,9,7,18,0.00
2013-12-14,25,18,12,-100,-100,-100,0,0,100,0.00,40.00,11,8,19,0.00
2013-12-15,33,30,25,-100,-100,-100,0,0,100,0.00,40.00,13,10,30,0.00
2013-12-16,31,30,28,-100,-100,-100,0,0,100,0.00,40.00,11,9,20,0.00
2013-12-17,44,37,29,-100,-100,-100,0,0,100,0.00,40.00,9,4,17,0.00
2013-12-18,38,34,28,-100,-100,-100,0,0,100,0.00,40.00,21,9,29,0.00
2013-12-19,28,24,16,-100,-100,-100,0,0,100,0.00,40.00,8,5,21,0.00
2013-12-20,14,10,7,-100,-100,-100,0,0,100,0.00,40.00,7,4,13,0.00
2013-12-21,16,14,11,-100,-100,-100,0,0,100,0.00,40.00,11,7,23,0.00
2013-12-22,18,15,10,-100,-100,-100,0,0,100,0.00,40.00,10,7,18,0.00
2013-12-23,25,22,17,-100,-100,-100,0,0,100,0.00,40.00,8,6,15,0.00
2013-12-24,27,20,14,-100,-100,-100,0,0,100,0.00,40.00,12,8,26,0.00
2013-12-25,30,23,17,-100,-100,-100,0,0,100,0.00,40.00,11,8,17,0.00
2013-12-26,33,28,27,-100,-100,-100,0,0,100,0.00,40.00,10,8,21,0.00
2013-12-27,40,34,29,-100,-100,-100,0,0,100,0.00,40.00,6,4,12,0.00
2013-12-28,33,23,12,-100,-100,-100,0,0,100,0.00,40.00,9,6,16,0.00
2013-12-29,23,15,9,-100,-100,-100,0,0,100,0.00,40.00,8,6,17,0.00
2013-12-30,26,24,19,-100,-100,-100,0,0,100,0.00,40.00,10,7,17,0.00
2013-12-31,29,26,23,-100,-100,-100,0,0,100,0.00,40.00,15,12,28,0.00
2014-1-1,27,22,16,-100,-100,-100,0,0,100,0.00,40.00,17,6,30,0.00
2014-1-2,35,29,24,-100,-100,-100,0,0,100,0.00,40.00,8,5,18,0.00